Station Historical Data
Daily Summary for June 13, 2012 Units:  English    Metric   Both
« Previous Day
Next Day »
Daily Weekly Monthly Yearly Custom
  High: Low: Average:
Temperature: 84.6 °F 61.9 °F 73.8 °F
Dew Point: 65.8 °F 53.8 °F 59.5 °F
Humidity: 89% 36% 64%
Wind Speed: 11.0mph 0.0mph 3.5mph
Wind Gust: 12.0mph - -
Wind- - SW
Pressure: 30.01 in 29.91 in -
Precipitation: 0.00 in    
Historical Graphs
 
 
Tabular Data for June 13, 2012
Time Temperature Dew Point Pressure Wind Wind Speed Wind Gust Humidity Rainfall Rate (Hourly) Conditions
00:00 70.2 °F 65.8 °F 29.99 in NNW 2.0 mph 2.0 mph 86% 0.00 in
00:01 70.2 °F 65.8 °F 29.99 in NNW 1.0 mph 2.0 mph 86% 0.00 in
00:06 70.1 °F 65.7 °F 30.00 in NNW 1.0 mph 2.0 mph 86% 0.00 in
00:11 70.0 °F 65.6 °F 30.00 in NW 1.0 mph 2.0 mph 86% 0.00 in
00:16 70.0 °F 65.6 °F 30.00 in NNW 1.0 mph 2.0 mph 86% 0.00 in
00:21 70.0 °F 65.6 °F 30.00 in NNW 1.0 mph 2.0 mph 86% 0.00 in
00:26 69.8 °F 65.4 °F 30.00 in NNW 2.0 mph 2.0 mph 86% 0.00 in
00:31 69.8 °F 65.4 °F 29.99 in NNW 3.0 mph 3.0 mph 86% 0.00 in
00:36 69.8 °F 65.4 °F 29.99 in NW 3.0 mph 4.0 mph 86% 0.00 in
00:41 69.7 °F 65.3 °F 30.00 in NW 4.0 mph 4.0 mph 86% 0.00 in
00:46 69.7 °F 65.3 °F 30.00 in NNW 3.0 mph 6.0 mph 86% 0.00 in
00:51 69.8 °F 65.4 °F 29.99 in NNW 4.0 mph 6.0 mph 86% 0.00 in
00:56 69.7 °F 65.3 °F 30.00 in NNW 5.0 mph 6.0 mph 86% 0.00 in
01:01 69.7 °F 65.0 °F 30.00 in NW 3.0 mph 8.0 mph 85% 0.00 in
01:06 69.6 °F 64.9 °F 29.99 in NNW 3.0 mph 5.0 mph 85% 0.00 in
01:11 69.4 °F 64.7 °F 30.00 in NNW 2.0 mph 5.0 mph 85% 0.00 in
01:16 69.2 °F 64.8 °F 29.99 in North 2.0 mph 3.0 mph 86% 0.00 in
01:21 68.9 °F 64.6 °F 29.99 in NNE 1.0 mph 3.0 mph 86% 0.00 in
01:26 68.6 °F 64.6 °F 29.99 in North 2.0 mph 2.0 mph 87% 0.00 in
01:32 68.4 °F 64.4 °F 29.99 in North 3.0 mph 3.0 mph 87% 0.00 in
01:37 68.1 °F 64.1 °F 29.99 in North 1.0 mph 2.0 mph 87% 0.00 in
01:42 67.9 °F 64.2 °F 29.98 in NNE 1.0 mph 2.0 mph 88% 0.00 in
01:47 67.7 °F 64.0 °F 29.99 in NNE 1.0 mph 2.0 mph 88% 0.00 in
01:52 67.7 °F 64.0 °F 29.98 in NNE 1.0 mph 4.0 mph 88% 0.00 in
01:57 67.6 °F 63.9 °F 29.98 in North 1.0 mph 3.0 mph 88% 0.00 in
02:02 67.5 °F 63.8 °F 29.98 in NNE 2.0 mph 2.0 mph 88% 0.00 in
02:07 67.4 °F 64.1 °F 29.98 in NNE 2.0 mph 2.0 mph 89% 0.00 in
02:12 67.4 °F 64.1 °F 29.98 in North 1.0 mph 2.0 mph 89% 0.00 in
02:17 67.5 °F 64.2 °F 29.97 in NNE 3.0 mph 3.0 mph 89% 0.00 in
02:22 67.5 °F 63.8 °F 29.98 in North 2.0 mph 3.0 mph 88% 0.00 in
02:27 67.5 °F 63.8 °F 29.98 in NNW 3.0 mph 4.0 mph 88% 0.00 in
02:32 67.3 °F 63.6 °F 29.98 in NE 2.0 mph 3.0 mph 88% 0.00 in
02:37 67.3 °F 63.6 °F 29.98 in North 1.0 mph 4.0 mph 88% 0.00 in
02:42 67.3 °F 63.6 °F 29.98 in North 2.0 mph 5.0 mph 88% 0.00 in
02:47 67.3 °F 63.3 °F 29.97 in NNE 4.0 mph 4.0 mph 87% 0.00 in
02:52 67.4 °F 63.1 °F 29.97 in NNE 3.0 mph 3.0 mph 86% 0.00 in
02:57 67.5 °F 62.8 °F 29.97 in North 1.0 mph 3.0 mph 85% 0.00 in
03:02 67.5 °F 62.5 °F 29.97 in North 1.0 mph 3.0 mph 84% 0.00 in
03:07 67.4 °F 62.4 °F 29.97 in North 2.0 mph 3.0 mph 84% 0.00 in
03:12 67.3 °F 62.3 °F 29.97 in North 2.0 mph 2.0 mph 84% 0.00 in
03:17 67.1 °F 62.1 °F 29.97 in NNW 1.0 mph 4.0 mph 84% 0.00 in
03:22 67.0 °F 62.0 °F 29.97 in North 2.0 mph 3.0 mph 84% 0.00 in
03:27 66.9 °F 61.9 °F 29.97 in North 2.0 mph 3.0 mph 84% 0.00 in
03:32 66.7 °F 61.7 °F 29.96 in North 4.0 mph 5.0 mph 84% 0.00 in
03:37 66.5 °F 61.9 °F 29.96 in North 2.0 mph 4.0 mph 85% 0.00 in
03:42 66.3 °F 61.7 °F 29.97 in North 2.0 mph 3.0 mph 85% 0.00 in
03:47 66.1 °F 61.5 °F 29.97 in North 3.0 mph 3.0 mph 85% 0.00 in
03:52 66.0 °F 61.4 °F 29.97 in North 3.0 mph 3.0 mph 85% 0.00 in
03:57 65.9 °F 61.3 °F 29.97 in NNE 3.0 mph 4.0 mph 85% 0.00 in
04:02 65.8 °F 61.2 °F 29.97 in North 3.0 mph 6.0 mph 85% 0.00 in
04:07 65.7 °F 61.1 °F 29.97 in North 3.0 mph 4.0 mph 85% 0.00 in
04:12 65.6 °F 61.0 °F 29.97 in North 2.0 mph 4.0 mph 85% 0.00 in
04:17 65.5 °F 60.9 °F 29.97 in North 2.0 mph 4.0 mph 85% 0.00 in
04:22 65.3 °F 60.7 °F 29.96 in North 2.0 mph 3.0 mph 85% 0.00 in
04:27 65.1 °F 60.5 °F 29.97 in North 2.0 mph 3.0 mph 85% 0.00 in
04:32 64.9 °F 60.3 °F 29.96 in NNE 3.0 mph 4.0 mph 85% 0.00 in
04:37 64.7 °F 60.4 °F 29.96 in North 2.0 mph 4.0 mph 86% 0.00 in
04:43 64.5 °F 60.2 °F 29.96 in NNW 2.0 mph 4.0 mph 86% 0.00 in
04:48 64.4 °F 60.1 °F 29.96 in North 3.0 mph 4.0 mph 86% 0.00 in
04:53 64.4 °F 60.1 °F 29.96 in North 4.0 mph 6.0 mph 86% 0.00 in
04:58 64.5 °F 59.9 °F 29.96 in North 3.0 mph 4.0 mph 85% 0.00 in
05:03 64.4 °F 59.8 °F 29.96 in North 2.0 mph 4.0 mph 85% 0.00 in
05:08 64.2 °F 59.6 °F 29.96 in NNW 2.0 mph 4.0 mph 85% 0.00 in
05:13 64.3 °F 59.4 °F 29.96 in North 2.0 mph 4.0 mph 84% 0.00 in
05:18 64.3 °F 59.4 °F 29.96 in NNE 3.0 mph 3.0 mph 84% 0.00 in
05:23 64.4 °F 59.1 °F 29.96 in NNW 1.0 mph 4.0 mph 83% 0.00 in
05:28 64.4 °F 59.1 °F 29.95 in NNE 1.0 mph 4.0 mph 83% 0.00 in
05:33 64.3 °F 59.0 °F 29.96 in North 2.0 mph 3.0 mph 83% 0.00 in
05:38 64.3 °F 58.7 °F 29.96 in NNE 1.0 mph 3.0 mph 82% 0.00 in
05:43 64.3 °F 58.7 °F 29.96 in North 1.0 mph 3.0 mph 82% 0.00 in
05:48 64.3 °F 58.3 °F 29.96 in North 3.0 mph 4.0 mph 81% 0.00 in
05:53 64.2 °F 58.3 °F 29.97 in NNE 3.0 mph 4.0 mph 81% 0.00 in
05:58 64.0 °F 58.1 °F 29.96 in ENE 1.0 mph 2.0 mph 81% 0.00 in
06:03 63.9 °F 58.0 °F 29.96 in NE 2.0 mph 3.0 mph 81% 0.00 in
06:08 63.8 °F 57.9 °F 29.96 in NNE 1.0 mph 3.0 mph 81% 0.00 in
06:13 63.6 °F 57.7 °F 29.97 in NNW 1.0 mph 3.0 mph 81% 0.00 in
06:18 63.3 °F 57.4 °F 29.97 in North 3.0 mph 5.0 mph 81% 0.00 in
06:23 63.0 °F 57.4 °F 29.97 in NNW 2.0 mph 3.0 mph 82% 0.00 in
06:28 62.7 °F 57.1 °F 29.97 in Calm   3.0 mph 82% 0.00 in
06:33 62.5 °F 56.9 °F 29.97 in North 1.0 mph 1.0 mph 82% 0.00 in
06:38 62.4 °F 56.8 °F 29.97 in NNE 2.0 mph 2.0 mph 82% 0.00 in
06:43 62.4 °F 56.5 °F 29.97 in NNW 2.0 mph 3.0 mph 81% 0.00 in
06:48 62.4 °F 56.5 °F 29.97 in NNE 3.0 mph 4.0 mph 81% 0.00 in
06:53 62.5 °F 56.6 °F 29.97 in North 2.0 mph 4.0 mph 81% 0.00 in
06:58 62.3 °F 56.4 °F 29.97 in NNW 3.0 mph 3.0 mph 81% 0.00 in
07:03 62.1 °F 56.5 °F 29.97 in North 2.0 mph 4.0 mph 82% 0.00 in
07:09 61.9 °F 56.7 °F 29.97 in North 3.0 mph 4.0 mph 83% 0.00 in
07:14 61.9 °F 56.7 °F 29.98 in NNW 2.0 mph 4.0 mph 83% 0.00 in
07:19 62.1 °F 56.9 °F 29.98 in NNW 3.0 mph 3.0 mph 83% 0.00 in
07:24 62.3 °F 57.1 °F 29.98 in North 4.0 mph 4.0 mph 83% 0.00 in
07:29 62.9 °F 57.3 °F 29.98 in NNW 3.0 mph 5.0 mph 82% 0.00 in
07:34 63.5 °F 57.6 °F 29.98 in North 2.0 mph 4.0 mph 81% 0.00 in
07:39 64.0 °F 57.7 °F 29.98 in NNE 3.0 mph 6.0 mph 80% 0.00 in
07:44 64.5 °F 57.8 °F 29.98 in North 5.0 mph 5.0 mph 79% 0.00 in
07:49 64.9 °F 57.9 °F 29.98 in North 4.0 mph 5.0 mph 78% 0.00 in
07:54 65.3 °F 58.3 °F 29.97 in North 2.0 mph 4.0 mph 78% 0.00 in
07:59 65.7 °F 57.9 °F 29.97 in North 4.0 mph 7.0 mph 76% 0.00 in
08:04 66.0 °F 58.2 °F 29.98 in NNW 4.0 mph 6.0 mph 76% 0.00 in
08:09 66.1 °F 58.3 °F 29.98 in NW 2.0 mph 5.0 mph 76% 0.00 in
08:14 66.1 °F 58.3 °F 29.99 in NNW 6.0 mph 6.0 mph 76% 0.00 in
08:19 66.3 °F 58.2 °F 29.99 in NW 4.0 mph 6.0 mph 75% 0.00 in
08:24 66.7 °F 58.5 °F 29.99 in NW 4.0 mph 6.0 mph 75% 0.00 in
08:29 67.1 °F 58.5 °F 29.99 in NNW 5.0 mph 6.0 mph 74% 0.00 in
08:34 67.3 °F 58.0 °F 30.00 in NNW 6.0 mph 6.0 mph 72% 0.00 in
08:39 67.6 °F 58.3 °F 30.00 in NNW 4.0 mph 8.0 mph 72% 0.00 in
08:44 68.1 °F 59.5 °F 30.00 in NNW 5.0 mph 5.0 mph 74% 0.00 in
08:49 68.3 °F 58.5 °F 30.00 in NW 4.0 mph 6.0 mph 71% 0.00 in
08:54 68.7 °F 58.9 °F 30.00 in NNW 3.0 mph 7.0 mph 71% 0.00 in
08:59 68.9 °F 59.1 °F 30.01 in NNW 5.0 mph 6.0 mph 71% 0.00 in
09:04 69.1 °F 59.3 °F 30.01 in North 5.0 mph 7.0 mph 71% 0.00 in
09:09 69.5 °F 59.7 °F 30.01 in NW 5.0 mph 7.0 mph 71% 0.00 in
09:14 69.7 °F 59.5 °F 30.01 in North 4.0 mph 6.0 mph 70% 0.00 in
09:19 70.2 °F 59.6 °F 30.01 in NW 4.0 mph 7.0 mph 69% 0.00 in
09:24 70.6 °F 59.1 °F 30.01 in NNE 5.0 mph 7.0 mph 67% 0.00 in
09:29 71.1 °F 60.4 °F 30.01 in NNE 4.0 mph 6.0 mph 69% 0.00 in
09:34 71.3 °F 58.9 °F 30.01 in NNW 6.0 mph 8.0 mph 65% 0.00 in
09:39 71.5 °F 59.1 °F 30.01 in NNE 4.0 mph 8.0 mph 65% 0.00 in
09:44 72.0 °F 59.6 °F 30.01 in NNW 2.0 mph 7.0 mph 65% 0.00 in
09:49 72.4 °F 59.1 °F 30.00 in North 8.0 mph 8.0 mph 63% 0.00 in
09:54 72.5 °F 59.6 °F 30.00 in North 6.0 mph 8.0 mph 64% 0.00 in
09:59 72.9 °F 58.2 °F 30.00 in NNE 3.0 mph 6.0 mph 60% 0.00 in
10:04 73.2 °F 57.5 °F 30.01 in NNW 3.0 mph 8.0 mph 58% 0.00 in
10:09 73.7 °F 59.0 °F 30.01 in North 6.0 mph 6.0 mph 60% 0.00 in
10:14 74.0 °F 59.7 °F 30.01 in NW 4.0 mph 8.0 mph 61% 0.00 in
10:19 73.9 °F 57.7 °F 30.01 in NNE 5.0 mph 8.0 mph 57% 0.00 in
10:24 74.2 °F 59.0 °F 30.01 in NW 7.0 mph 9.0 mph 59% 0.00 in
10:29 74.2 °F 58.5 °F 30.01 in NNW 3.0 mph 7.0 mph 58% 0.00 in
10:35 74.6 °F 58.4 °F 30.00 in NE 3.0 mph 7.0 mph 57% 0.00 in
10:40 74.8 °F 59.5 °F 30.00 in NNW 6.0 mph 7.0 mph 59% 0.00 in
10:45 75.0 °F 59.2 °F 30.00 in NNE 4.0 mph 6.0 mph 58% 0.00 in
10:50 75.1 °F 58.3 °F 30.00 in NNE 3.0 mph 7.0 mph 56% 0.00 in
10:55 75.3 °F 58.0 °F 30.00 in NW 9.0 mph 9.0 mph 55% 0.00 in
11:00 75.2 °F 57.9 °F 30.00 in NW 5.0 mph 8.0 mph 55% 0.00 in
11:05 75.4 °F 57.6 °F 30.00 in NW 5.0 mph 7.0 mph 54% 0.00 in
11:10 75.8 °F 60.9 °F 30.00 in NW 6.0 mph 6.0 mph 60% 0.00 in
11:15 76.2 °F 60.8 °F 30.00 in NNW 5.0 mph 7.0 mph 59% 0.00 in
11:20 76.3 °F 59.0 °F 30.00 in NNW 5.0 mph 9.0 mph 55% 0.00 in
11:25 76.7 °F 59.8 °F 30.00 in NW 5.0 mph 7.0 mph 56% 0.00 in
11:30 76.8 °F 57.9 °F 30.00 in North 4.0 mph 7.0 mph 52% 0.00 in
11:35 77.3 °F 60.4 °F 30.00 in NNE 3.0 mph 5.0 mph 56% 0.00 in
11:40 77.7 °F 60.8 °F 29.99 in NW 5.0 mph 6.0 mph 56% 0.00 in
11:45 77.7 °F 59.8 °F 29.99 in North 6.0 mph 7.0 mph 54% 0.00 in
11:50 78.0 °F 60.0 °F 29.99 in NW 5.0 mph 7.0 mph 54% 0.00 in
11:55 78.1 °F 58.0 °F 29.99 in NNE 4.0 mph 8.0 mph 50% 0.00 in
12:00 78.2 °F 58.1 °F 29.99 in NW 5.0 mph 9.0 mph 50% 0.00 in
12:05 78.3 °F 55.2 °F 29.99 in North 4.0 mph 8.0 mph 45% 0.00 in
12:10 78.6 °F 57.9 °F 29.99 in North 3.0 mph 8.0 mph 49% 0.00 in
12:15 78.8 °F 58.0 °F 29.99 in NNE 3.0 mph 7.0 mph 49% 0.00 in
12:20 78.8 °F 56.9 °F 29.98 in North 1.0 mph 9.0 mph 47% 0.00 in
12:25 79.2 °F 58.4 °F 29.98 in NNW 7.0 mph 9.0 mph 49% 0.00 in
12:30 79.5 °F 57.5 °F 29.98 in NW 3.0 mph 8.0 mph 47% 0.00 in
12:35 79.6 °F 53.8 °F 29.98 in NE 11.0 mph 11.0 mph 41% 0.00 in
12:40 79.8 °F 56.0 °F 29.98 in NNW 4.0 mph 8.0 mph 44% 0.00 in
12:45 80.0 °F 56.2 °F 29.98 in NNW 3.0 mph 8.0 mph 44% 0.00 in
12:50 80.2 °F 55.0 °F 29.98 in NNW 6.0 mph 8.0 mph 42% 0.00 in
12:55 80.2 °F 56.3 °F 29.98 in NNE 6.0 mph 11.0 mph 44% 0.00 in
13:00 80.4 °F 57.1 °F 29.97 in North 6.0 mph 7.0 mph 45% 0.00 in
13:05 80.5 °F 54.7 °F 29.97 in NW 5.0 mph 7.0 mph 41% 0.00 in
13:10 81.1 °F 58.4 °F 29.97 in NW 6.0 mph 9.0 mph 46% 0.00 in
13:15 80.7 °F 55.5 °F 29.97 in NNW 5.0 mph 5.0 mph 42% 0.00 in
13:20 81.1 °F 58.4 °F 29.97 in NNW 9.0 mph 10.0 mph 46% 0.00 in
13:25 81.1 °F 54.5 °F 29.97 in North 8.0 mph 9.0 mph 40% 0.00 in
13:30 81.3 °F 56.0 °F 29.97 in NE 4.0 mph 6.0 mph 42% 0.00 in
13:35 81.7 °F 56.4 °F 29.97 in NNE 5.0 mph 6.0 mph 42% 0.00 in
13:40 81.5 °F 56.9 °F 29.96 in NW 2.0 mph 7.0 mph 43% 0.00 in
13:47 81.6 °F 56.3 °F 29.96 in NNW 4.0 mph 7.0 mph 42% 0.00 in
13:52 81.7 °F 57.7 °F 29.96 in NNE 4.0 mph 7.0 mph 44% 0.00 in
13:57 81.6 °F 55.6 °F 29.95 in ENE 5.0 mph 7.0 mph 41% 0.00 in
14:02 81.6 °F 56.3 °F 29.96 in North 9.0 mph 9.0 mph 42% 0.00 in
14:07 81.7 °F 57.7 °F 29.96 in North 5.0 mph 7.0 mph 44% 0.00 in
14:12 82.0 °F 59.8 °F 29.96 in North 7.0 mph 7.0 mph 47% 0.00 in
14:17 82.1 °F 57.4 °F 29.96 in NW 8.0 mph 9.0 mph 43% 0.00 in
14:22 82.2 °F 59.4 °F 29.96 in NNW 7.0 mph 12.0 mph 46% 0.00 in
14:27 82.1 °F 56.8 °F 29.95 in NNW 3.0 mph 8.0 mph 42% 0.00 in
14:32 82.3 °F 55.6 °F 29.95 in North 2.0 mph 4.0 mph 40% 0.00 in
14:37 82.7 °F 56.6 °F 29.95 in NNE 4.0 mph 11.0 mph 41% 0.00 in
14:42 82.5 °F 54.4 °F 29.95 in NW 8.0 mph 12.0 mph 38% 0.00 in
14:47 82.4 °F 55.7 °F 29.94 in NNW 1.0 mph 7.0 mph 40% 0.00 in
14:52 82.6 °F 55.9 °F 29.94 in West 3.0 mph 5.0 mph 40% 0.00 in
14:57 83.0 °F 58.2 °F 29.94 in NE 7.0 mph 9.0 mph 43% 0.00 in
15:02 82.8 °F 56.7 °F 29.94 in NE 3.0 mph 6.0 mph 41% 0.00 in
15:07 82.9 °F 56.8 °F 29.93 in NE 5.0 mph 8.0 mph 41% 0.00 in
15:12 83.0 °F 57.6 °F 29.93 in NNE 4.0 mph 8.0 mph 42% 0.00 in
15:17 83.0 °F 54.8 °F 29.93 in NNE 3.0 mph 6.0 mph 38% 0.00 in
15:22 83.1 °F 54.9 °F 29.93 in NNE 7.0 mph 9.0 mph 38% 0.00 in
15:27 83.2 °F 57.8 °F 29.93 in North 5.0 mph 6.0 mph 42% 0.00 in
15:32 83.3 °F 56.5 °F 29.92 in NNW 4.0 mph 8.0 mph 40% 0.00 in
15:37 83.4 °F 57.3 °F 29.93 in NE 4.0 mph 6.0 mph 41% 0.00 in
15:42 83.5 °F 56.7 °F 29.93 in NE 5.0 mph 8.0 mph 40% 0.00 in
15:47 83.5 °F 55.2 °F 29.93 in North 6.0 mph 9.0 mph 38% 0.00 in
15:52 83.7 °F 56.1 °F 29.93 in NNW 3.0 mph 8.0 mph 39% 0.00 in
15:57 83.6 °F 53.8 °F 29.93 in North 4.0 mph 9.0 mph 36% 0.00 in
16:02 83.6 °F 56.0 °F 29.93 in NE 6.0 mph 7.0 mph 39% 0.00 in
16:07 83.6 °F 53.8 °F 29.93 in NE 3.0 mph 8.0 mph 36% 0.00 in
16:12 83.8 °F 56.9 °F 29.93 in North 9.0 mph 10.0 mph 40% 0.00 in
16:17 83.8 °F 57.6 °F 29.93 in North 3.0 mph 7.0 mph 41% 0.00 in
16:22 84.0 °F 57.8 °F 29.93 in NNE 6.0 mph 9.0 mph 41% 0.00 in
16:27 84.2 °F 55.1 °F 29.93 in NNW 7.0 mph 8.0 mph 37% 0.00 in
16:32 84.1 °F 57.2 °F 29.93 in North 4.0 mph 5.0 mph 40% 0.00 in
16:37 84.4 °F 56.8 °F 29.93 in NNW 4.0 mph 7.0 mph 39% 0.00 in
16:42 84.5 °F 56.8 °F 29.93 in North 5.0 mph 8.0 mph 39% 0.00 in
16:47 84.6 °F 56.9 °F 29.92 in North 7.0 mph 7.0 mph 39% 0.00 in
16:52 84.5 °F 56.1 °F 29.92 in NNE 8.0 mph 10.0 mph 38% 0.00 in
16:57 84.3 °F 56.0 °F 29.92 in NE 7.0 mph 9.0 mph 38% 0.00 in
17:02 84.1 °F 56.5 °F 29.92 in North 9.0 mph 9.0 mph 39% 0.00 in
17:07 84.1 °F 58.5 °F 29.92 in NW 6.0 mph 8.0 mph 42% 0.00 in
17:12 84.2 °F 58.0 °F 29.92 in NNW 6.0 mph 11.0 mph 41% 0.00 in
17:17 84.2 °F 57.3 °F 29.92 in NE 3.0 mph 7.0 mph 40% 0.00 in
17:22 84.1 °F 59.2 °F 29.92 in NNW 5.0 mph 10.0 mph 43% 0.00 in
17:27 84.0 °F 57.8 °F 29.92 in NNW 3.0 mph 9.0 mph 41% 0.00 in
17:32 84.3 °F 61.3 °F 29.92 in NW 3.0 mph 4.0 mph 46% 0.00 in
17:37 84.4 °F 61.4 °F 29.92 in ENE 1.0 mph 7.0 mph 46% 0.00 in
17:42 84.6 °F 57.6 °F 29.92 in NNE 8.0 mph 8.0 mph 40% 0.00 in
17:47 84.2 °F 57.3 °F 29.92 in NNW 3.0 mph 9.0 mph 40% 0.00 in
17:52 84.2 °F 61.2 °F 29.92 in North 2.0 mph 8.0 mph 46% 0.00 in
17:57 84.1 °F 58.5 °F 29.92 in NW 4.0 mph 8.0 mph 42% 0.00 in
18:02 83.9 °F 58.4 °F 29.91 in North 9.0 mph 9.0 mph 42% 0.00 in
18:07 83.9 °F 59.0 °F 29.91 in NNW 5.0 mph 8.0 mph 43% 0.00 in
18:12 83.7 °F 59.5 °F 29.92 in North 3.0 mph 9.0 mph 44% 0.00 in
18:17 83.8 °F 59.6 °F 29.92 in North 5.0 mph 8.0 mph 44% 0.00 in
18:22 83.8 °F 58.3 °F 29.91 in NW 3.0 mph 6.0 mph 42% 0.00 in
18:27 84.1 °F 60.5 °F 29.91 in North 3.0 mph 8.0 mph 45% 0.00 in
18:33 84.1 °F 58.5 °F 29.92 in North 5.0 mph 7.0 mph 42% 0.00 in
18:38 84.1 °F 59.2 °F 29.92 in NNE 3.0 mph 7.0 mph 43% 0.00 in
18:43 83.8 °F 59.6 °F 29.91 in NW 4.0 mph 7.0 mph 44% 0.00 in
18:48 83.2 °F 59.7 °F 29.91 in NNW 6.0 mph 8.0 mph 45% 0.00 in
18:53 82.6 °F 59.8 °F 29.91 in North 4.0 mph 6.0 mph 46% 0.00 in
18:58 82.1 °F 59.3 °F 29.91 in NNE 6.0 mph 6.0 mph 46% 0.00 in
19:03 82.4 °F 59.6 °F 29.92 in NNW 4.0 mph 7.0 mph 46% 0.00 in
19:08 82.5 °F 60.8 °F 29.92 in NNW 5.0 mph 8.0 mph 48% 0.00 in
19:13 82.4 °F 60.8 °F 29.91 in NNW 7.0 mph 8.0 mph 48% 0.00 in
19:18 82.4 °F 60.2 °F 29.92 in NW 5.0 mph 10.0 mph 47% 0.00 in
19:23 82.4 °F 60.8 °F 29.92 in NNW 5.0 mph 6.0 mph 48% 0.00 in
19:28 82.3 °F 61.8 °F 29.92 in NW 5.0 mph 5.0 mph 50% 0.00 in
19:33 82.3 °F 61.2 °F 29.92 in NW 3.0 mph 6.0 mph 49% 0.00 in
19:38 82.1 °F 61.1 °F 29.92 in NNW 4.0 mph 6.0 mph 49% 0.00 in
19:43 81.8 °F 60.8 °F 29.91 in NNW 5.0 mph 6.0 mph 49% 0.00 in
19:48 81.2 °F 60.2 °F 29.91 in NNW 6.0 mph 9.0 mph 49% 0.00 in
19:53 80.5 °F 61.3 °F 29.92 in NNW 3.0 mph 6.0 mph 52% 0.00 in
19:58 79.9 °F 60.7 °F 29.92 in NNW 3.0 mph 4.0 mph 52% 0.00 in
20:03 79.7 °F 61.1 °F 29.92 in North 2.0 mph 4.0 mph 53% 0.00 in
20:08 79.9 °F 61.3 °F 29.92 in NW 4.0 mph 5.0 mph 53% 0.00 in
20:13 79.8 °F 61.7 °F 29.92 in NNW 2.0 mph 6.0 mph 54% 0.00 in
20:18 79.7 °F 61.6 °F 29.92 in NNW 3.0 mph 4.0 mph 54% 0.00 in
20:23 79.3 °F 61.8 °F 29.92 in NNW 3.0 mph 6.0 mph 55% 0.00 in
20:28 79.0 °F 62.0 °F 29.92 in NW 2.0 mph 4.0 mph 56% 0.00 in
20:33 78.3 °F 61.8 °F 29.92 in NW 4.0 mph 5.0 mph 57% 0.00 in
20:38 77.7 °F 61.8 °F 29.92 in NW 4.0 mph 5.0 mph 58% 0.00 in
20:43 77.1 °F 61.2 °F 29.92 in NW 3.0 mph 4.0 mph 58% 0.00 in
20:48 76.7 °F 61.3 °F 29.92 in NW 2.0 mph 4.0 mph 59% 0.00 in
20:53 76.2 °F 60.8 °F 29.92 in NW 2.0 mph 3.0 mph 59% 0.00 in
20:58 75.8 °F 60.9 °F 29.92 in NNW 1.0 mph 2.0 mph 60% 0.00 in
21:03 75.4 °F 61.0 °F 29.92 in NW 1.0 mph 2.0 mph 61% 0.00 in
21:08 75.1 °F 61.2 °F 29.93 in NNW 1.0 mph 2.0 mph 62% 0.00 in
21:13 74.8 °F 60.9 °F 29.92 in NNW 1.0 mph 2.0 mph 62% 0.00 in
21:18 74.4 °F 61.0 °F 29.93 in NNW 1.0 mph 3.0 mph 63% 0.00 in
21:23 74.0 °F 60.6 °F 29.93 in North 1.0 mph 3.0 mph 63% 0.00 in
21:28 73.7 °F 60.3 °F 29.92 in NNW 2.0 mph 3.0 mph 63% 0.00 in
21:33 73.5 °F 60.6 °F 29.93 in North 3.0 mph 4.0 mph 64% 0.00 in
21:38 73.4 °F 60.5 °F 29.92 in North 2.0 mph 4.0 mph 64% 0.00 in
21:43 73.1 °F 60.7 °F 29.92 in NNW 3.0 mph 5.0 mph 65% 0.00 in
21:48 72.9 °F 60.5 °F 29.93 in NNW 2.0 mph 3.0 mph 65% 0.00 in
21:53 72.7 °F 60.3 °F 29.92 in North 2.0 mph 3.0 mph 65% 0.00 in
21:58 72.6 °F 60.2 °F 29.92 in NNW 2.0 mph 4.0 mph 65% 0.00 in
22:03 72.4 °F 60.4 °F 29.92 in North 4.0 mph 4.0 mph 66% 0.00 in
22:08 72.2 °F 60.2 °F 29.92 in NNE 3.0 mph 5.0 mph 66% 0.00 in
22:13 72.0 °F 60.0 °F 29.92 in North 2.0 mph 4.0 mph 66% 0.00 in
22:18 71.7 °F 60.2 °F 29.92 in North 1.0 mph 3.0 mph 67% 0.00 in
22:23 71.4 °F 59.9 °F 29.92 in NNE 2.0 mph 3.0 mph 67% 0.00 in
22:29 71.3 °F 59.8 °F 29.93 in NNE 1.0 mph 2.0 mph 67% 0.00 in
22:34 71.2 °F 59.7 °F 29.93 in North 1.0 mph 2.0 mph 67% 0.00 in
22:39 71.1 °F 59.6 °F 29.93 in NNE 2.0 mph 2.0 mph 67% 0.00 in
22:44 71.0 °F 59.5 °F 29.93 in North 1.0 mph 3.0 mph 67% 0.00 in
22:49 70.9 °F 59.4 °F 29.93 in Calm   3.0 mph 67% 0.00 in
22:54 70.7 °F 59.2 °F 29.93 in NNE 2.0 mph 2.0 mph 67% 0.00 in
22:59 70.7 °F 59.2 °F 29.93 in NNE 1.0 mph 2.0 mph 67% 0.00 in
23:04 70.5 °F 59.0 °F 29.93 in North 2.0 mph 2.0 mph 67% 0.00 in
23:09 70.4 °F 58.9 °F 29.93 in North 2.0 mph 2.0 mph 67% 0.00 in
23:14 70.2 °F 58.7 °F 29.93 in North 3.0 mph 3.0 mph 67% 0.00 in
23:19 70.1 °F 58.7 °F 29.93 in North 3.0 mph 3.0 mph 67% 0.00 in
23:24 69.8 °F 58.8 °F 29.94 in North 2.0 mph 3.0 mph 68% 0.00 in
23:29 69.6 °F 58.6 °F 29.94 in North 2.0 mph 4.0 mph 68% 0.00 in
23:34 69.5 °F 58.5 °F 29.94 in NNE 1.0 mph 3.0 mph 68% 0.00 in
23:39 69.3 °F 58.3 °F 29.94 in North 1.0 mph 2.0 mph 68% 0.00 in
23:44 69.2 °F 58.6 °F 29.94 in North 1.0 mph 2.0 mph 69% 0.00 in
23:49 69.0 °F 58.4 °F 29.94 in North 1.0 mph 2.0 mph 69% 0.00 in
23:54 68.8 °F 58.2 °F 29.94 in North 1.0 mph 2.0 mph 69% 0.00 in
23:59 68.8 °F 58.2 °F 29.94 in NNE 2.0 mph 2.0 mph 69% 0.00 in
Compliments of Weather Underground